Year,Month,Day,Hour,Minute,Value (Times are PST for temperature in C)
2008,08,15,00,00,20.20
2008,08,15,00,01,20.20
2008,08,15,00,02,20.20
2008,08,15,00,03,20.20
2008,08,15,00,04,20.20
2008,08,15,00,05,20.20
2008,08,15,00,06,20.20
2008,08,15,00,07,20.10
2008,08,15,00,08,20.10
2008,08,15,00,09,20.00
2008,08,15,00,10,20.00
2008,08,15,00,11,20.00
2008,08,15,00,12,19.90
2008,08,15,00,13,19.90
2008,08,15,00,14,19.90
2008,08,15,00,15,19.90
2008,08,15,00,16,19.90
2008,08,15,00,17,19.90
2008,08,15,00,18,19.90
2008,08,15,00,19,19.90
2008,08,15,00,20,19.90
2008,08,15,00,21,19.90
2008,08,15,00,22,19.90
2008,08,15,00,23,19.90
2008,08,15,00,24,19.90
2008,08,15,00,25,19.90
2008,08,15,00,26,19.90
2008,08,15,00,27,19.90
2008,08,15,00,28,19.90
2008,08,15,00,29,19.90
2008,08,15,00,30,19.90
2008,08,15,00,31,19.90
2008,08,15,00,32,19.80
2008,08,15,00,33,19.80
2008,08,15,00,34,19.80
2008,08,15,00,35,19.70
2008,08,15,00,36,19.70
2008,08,15,00,37,19.60
2008,08,15,00,38,19.60
2008,08,15,00,39,19.50
2008,08,15,00,40,19.50
2008,08,15,00,41,19.50
2008,08,15,00,42,19.50
2008,08,15,00,43,19.40
2008,08,15,00,44,19.40
2008,08,15,00,45,19.40
2008,08,15,00,46,19.40
2008,08,15,00,47,19.40
2008,08,15,00,48,19.40
2008,08,15,00,49,19.40
2008,08,15,00,50,19.40
2008,08,15,00,51,19.30
2008,08,15,00,52,19.30
2008,08,15,00,53,19.30
2008,08,15,00,54,19.30
2008,08,15,00,55,19.30
2008,08,15,00,56,19.30
2008,08,15,00,57,19.30
2008,08,15,00,58,19.30
2008,08,15,00,59,19.30
2008,08,15,01,00,19.30
2008,08,15,01,01,19.20
2008,08,15,01,02,19.20
2008,08,15,01,03,19.20
2008,08,15,01,04,19.20
2008,08,15,01,05,19.20
2008,08,15,01,06,19.10
2008,08,15,01,07,19.10
2008,08,15,01,08,19.10
2008,08,15,01,09,19.10
2008,08,15,01,10,19.10
2008,08,15,01,11,19.10
2008,08,15,01,12,19.10
2008,08,15,01,13,19.10
2008,08,15,01,14,19.10
2008,08,15,01,15,19.00
2008,08,15,01,16,19.00
2008,08,15,01,17,19.00
2008,08,15,01,18,19.00
2008,08,15,01,19,19.00
2008,08,15,01,20,19.00
2008,08,15,01,21,19.00
2008,08,15,01,22,19.00
2008,08,15,01,23,19.00
2008,08,15,01,24,19.00
2008,08,15,01,25,19.00
2008,08,15,01,26,18.90
2008,08,15,01,27,18.90
2008,08,15,01,28,18.90
2008,08,15,01,29,18.90
2008,08,15,01,30,18.90
2008,08,15,01,31,18.90
2008,08,15,01,32,18.80
2008,08,15,01,33,18.80
2008,08,15,01,34,18.80
2008,08,15,01,35,18.80
2008,08,15,01,36,18.70
2008,08,15,01,37,18.70
2008,08,15,01,38,18.70
2008,08,15,01,39,18.70
2008,08,15,01,40,18.80
2008,08,15,01,41,18.80
2008,08,15,01,42,18.80
2008,08,15,01,43,18.80
2008,08,15,01,44,18.80
2008,08,15,01,45,18.80
2008,08,15,01,46,18.80
2008,08,15,01,47,18.80
2008,08,15,01,48,18.80
2008,08,15,01,49,18.80
2008,08,15,01,50,18.80
2008,08,15,01,51,18.80
2008,08,15,01,52,18.80
2008,08,15,01,53,18.80
2008,08,15,01,54,18.80
2008,08,15,01,55,18.80
2008,08,15,01,56,18.80
2008,08,15,01,57,18.80
2008,08,15,01,58,18.80
2008,08,15,01,59,18.80
2008,08,15,02,00,18.80
2008,08,15,02,01,18.80
2008,08,15,02,02,18.70
2008,08,15,02,03,18.70
2008,08,15,02,04,18.70
2008,08,15,02,05,18.70
2008,08,15,02,06,18.60
2008,08,15,02,07,18.60
2008,08,15,02,08,18.60
2008,08,15,02,09,18.60
2008,08,15,02,10,18.60
2008,08,15,02,11,18.60
2008,08,15,02,12,18.60
2008,08,15,02,13,18.60
2008,08,15,02,14,18.60
2008,08,15,02,15,18.60
2008,08,15,02,16,18.60
2008,08,15,02,17,18.60
2008,08,15,02,18,18.50
2008,08,15,02,19,18.50
2008,08,15,02,20,18.50
2008,08,15,02,21,18.50
2008,08,15,02,22,18.50
2008,08,15,02,23,18.50
2008,08,15,02,24,18.40
2008,08,15,02,25,18.40
2008,08,15,02,26,18.40
2008,08,15,02,27,18.40
2008,08,15,02,28,18.40
2008,08,15,02,29,18.40
2008,08,15,02,30,18.50
2008,08,15,02,31,18.50
2008,08,15,02,32,18.60
2008,08,15,02,33,18.70
2008,08,15,02,34,18.70
2008,08,15,02,35,18.80
2008,08,15,02,36,18.80
2008,08,15,02,37,18.90
2008,08,15,02,38,18.90
2008,08,15,02,39,18.90
2008,08,15,02,40,18.90
2008,08,15,02,41,18.90
2008,08,15,02,42,19.00
2008,08,15,02,43,19.00
2008,08,15,02,44,19.00
2008,08,15,02,45,19.00
2008,08,15,02,46,19.00
2008,08,15,02,47,19.00
2008,08,15,02,48,19.10
2008,08,15,02,49,19.10
2008,08,15,02,50,19.10
2008,08,15,02,51,19.10
2008,08,15,02,52,19.10
2008,08,15,02,53,19.00
2008,08,15,02,54,19.00
2008,08,15,02,55,19.00
2008,08,15,02,56,19.10
2008,08,15,02,57,19.10
2008,08,15,02,58,19.10
2008,08,15,02,59,19.10
2008,08,15,03,00,19.10
2008,08,15,03,01,19.10
2008,08,15,03,02,19.10
2008,08,15,03,03,19.10
2008,08,15,03,04,19.10
2008,08,15,03,05,19.10
2008,08,15,03,06,19.10
2008,08,15,03,07,19.10
2008,08,15,03,08,19.00
2008,08,15,03,09,19.00
2008,08,15,03,10,18.90
2008,08,15,03,11,18.90
2008,08,15,03,12,18.90
2008,08,15,03,13,18.90
2008,08,15,03,14,18.80
2008,08,15,03,15,18.80
2008,08,15,03,16,18.80
2008,08,15,03,17,18.80
2008,08,15,03,18,18.80
2008,08,15,03,19,18.80
2008,08,15,03,20,18.80
2008,08,15,03,21,18.80
2008,08,15,03,22,18.70
2008,08,15,03,23,18.70
2008,08,15,03,24,18.70
2008,08,15,03,25,18.70
2008,08,15,03,26,18.70
2008,08,15,03,27,18.70
2008,08,15,03,28,18.60
2008,08,15,03,29,18.60
2008,08,15,03,30,18.60
2008,08,15,04,02,18.50
2008,08,15,04,03,18.50
2008,08,15,04,04,18.50
2008,08,15,04,05,18.50
2008,08,15,04,06,18.40
2008,08,15,04,07,18.40
2008,08,15,04,08,18.40
2008,08,15,04,09,18.30
2008,08,15,04,10,18.30
2008,08,15,04,11,18.30
2008,08,15,04,12,18.30
2008,08,15,04,13,18.30
2008,08,15,04,14,18.30
2008,08,15,04,15,18.30
2008,08,15,04,16,18.20
2008,08,15,04,17,18.20
2008,08,15,04,18,18.20
2008,08,15,04,19,18.20
2008,08,15,04,20,18.20
2008,08,15,04,21,18.20
2008,08,15,04,22,18.20
2008,08,15,04,23,18.20
2008,08,15,04,24,18.20
2008,08,15,04,25,18.20
2008,08,15,04,26,18.20
2008,08,15,04,27,18.20
2008,08,15,04,28,18.20
2008,08,15,04,29,18.20
2008,08,15,04,30,18.20
2008,08,15,04,31,18.20
2008,08,15,04,32,18.20
2008,08,15,04,33,18.20
2008,08,15,04,34,18.10
2008,08,15,04,35,18.10
2008,08,15,04,36,18.10
2008,08,15,04,37,18.10
2008,08,15,04,38,18.10
2008,08,15,04,39,18.10
2008,08,15,04,40,18.10
2008,08,15,04,41,18.10
2008,08,15,04,42,18.10
2008,08,15,04,43,18.10
2008,08,15,04,44,18.10
2008,08,15,04,45,18.10
2008,08,15,04,46,18.10
2008,08,15,04,47,18.10
2008,08,15,04,48,18.00
2008,08,15,04,49,18.00
2008,08,15,04,50,17.90
2008,08,15,04,51,17.90
2008,08,15,04,52,17.90
2008,08,15,04,53,17.80
2008,08,15,04,54,17.80
2008,08,15,04,55,17.70
2008,08,15,04,56,17.70
2008,08,15,04,57,17.70
2008,08,15,04,58,17.60
2008,08,15,04,59,17.60
2008,08,15,05,00,17.60
2008,08,15,05,01,17.60
2008,08,15,05,02,17.60
2008,08,15,05,03,17.50
2008,08,15,05,04,17.50
2008,08,15,05,05,17.50
2008,08,15,05,06,17.50
2008,08,15,05,07,17.40
2008,08,15,05,08,17.40
2008,08,15,05,09,17.40
2008,08,15,05,10,17.40
2008,08,15,05,11,17.40
2008,08,15,05,12,17.40
2008,08,15,05,13,17.40
2008,08,15,05,14,17.40
2008,08,15,05,15,17.40
2008,08,15,05,16,17.40
2008,08,15,05,17,17.40
2008,08,15,05,18,17.40
2008,08,15,05,19,17.40
2008,08,15,05,20,17.50
2008,08,15,05,21,17.50
2008,08,15,05,22,17.50
2008,08,15,05,23,17.50
2008,08,15,05,24,17.50
2008,08,15,05,25,17.50
2008,08,15,05,26,17.60
2008,08,15,05,27,17.60
2008,08,15,05,28,17.60
2008,08,15,05,29,17.70
2008,08,15,05,30,17.70
2008,08,15,05,31,17.70
2008,08,15,05,32,17.70
2008,08,15,05,33,17.80
2008,08,15,05,34,17.80
2008,08,15,05,35,17.80
2008,08,15,05,36,17.80
2008,08,15,05,37,17.80
2008,08,15,05,38,17.80
2008,08,15,05,39,17.80
2008,08,15,05,40,17.80
2008,08,15,05,41,17.80
2008,08,15,05,42,17.80
2008,08,15,05,43,17.80
2008,08,15,05,44,17.80
2008,08,15,05,45,17.80
2008,08,15,05,46,17.70
2008,08,15,05,47,17.80
2008,08,15,05,48,17.80
2008,08,15,05,49,17.70
2008,08,15,05,50,17.70
2008,08,15,05,51,17.70
2008,08,15,05,52,17.70
2008,08,15,05,53,17.80
2008,08,15,05,54,17.80
2008,08,15,05,55,17.70
2008,08,15,05,56,17.70
2008,08,15,05,57,17.70
2008,08,15,05,58,17.70
2008,08,15,05,59,17.70
2008,08,15,06,00,17.70
2008,08,15,06,01,17.70
2008,08,15,06,02,17.60
2008,08,15,06,03,17.60
2008,08,15,06,04,17.60
2008,08,15,06,05,17.60
2008,08,15,06,06,17.60
2008,08,15,06,07,17.50
2008,08,15,06,08,17.50
2008,08,15,06,09,17.50
2008,08,15,06,10,17.50
2008,08,15,06,11,17.50
2008,08,15,06,12,17.40
2008,08,15,06,13,17.40
2008,08,15,06,14,17.40
2008,08,15,06,15,17.40
2008,08,15,06,16,17.40
2008,08,15,06,17,17.40
2008,08,15,06,18,17.40
2008,08,15,06,19,17.40
2008,08,15,06,20,17.40
2008,08,15,06,21,17.40
2008,08,15,06,22,17.40
2008,08,15,06,23,17.40
2008,08,15,06,24,17.40
2008,08,15,06,25,17.40
2008,08,15,06,26,17.40
2008,08,15,06,27,17.40
2008,08,15,06,28,17.40
2008,08,15,06,29,17.40
2008,08,15,06,30,17.40
2008,08,15,06,31,17.40
2008,08,15,06,32,17.40
2008,08,15,06,33,17.40
2008,08,15,06,34,17.40
2008,08,15,06,35,17.40
2008,08,15,06,36,17.40
2008,08,15,06,37,17.40
2008,08,15,06,38,17.40
2008,08,15,06,39,17.40
2008,08,15,06,40,17.40
2008,08,15,06,41,17.40
2008,08,15,06,42,17.40
2008,08,15,06,43,17.50
2008,08,15,06,44,17.50
2008,08,15,06,45,17.50
2008,08,15,06,46,17.60
2008,08,15,06,47,17.60
2008,08,15,06,48,17.60
2008,08,15,06,49,17.60
2008,08,15,06,50,17.60
2008,08,15,06,51,17.60
2008,08,15,06,52,17.60
2008,08,15,06,53,17.60
2008,08,15,06,54,17.70
2008,08,15,06,55,17.70
2008,08,15,06,56,17.70
2008,08,15,06,57,17.70
2008,08,15,06,58,17.70
2008,08,15,06,59,17.70
2008,08,15,07,00,17.70
2008,08,15,07,01,17.80
2008,08,15,07,02,17.80
2008,08,15,07,03,17.80
2008,08,15,07,04,17.80
2008,08,15,07,05,17.80
2008,08,15,07,06,17.80
2008,08,15,07,07,17.80
2008,08,15,07,08,17.80
2008,08,15,07,09,17.80
2008,08,15,07,10,17.80
2008,08,15,07,11,17.80
2008,08,15,07,12,17.80
2008,08,15,07,13,17.90
2008,08,15,07,14,17.90
2008,08,15,07,15,17.90
2008,08,15,07,16,17.90
2008,08,15,07,17,17.90
2008,08,15,07,18,17.90
2008,08,15,07,19,17.90
2008,08,15,07,20,17.90
2008,08,15,07,21,17.90
2008,08,15,07,22,17.90
2008,08,15,07,23,17.90
2008,08,15,07,24,17.90
2008,08,15,07,25,17.90
2008,08,15,07,26,18.00
2008,08,15,07,27,18.00
2008,08,15,07,28,18.00
2008,08,15,07,29,18.00
2008,08,15,07,30,18.00
2008,08,15,07,31,18.00
2008,08,15,07,32,18.00
2008,08,15,07,33,18.10
2008,08,15,07,34,18.10
2008,08,15,07,35,18.10
2008,08,15,07,36,18.10
2008,08,15,07,37,18.20
2008,08,15,07,38,18.20
2008,08,15,07,39,18.20
2008,08,15,07,40,18.20
2008,08,15,07,41,18.30
2008,08,15,07,42,18.30
2008,08,15,07,43,18.30
2008,08,15,07,44,18.30
2008,08,15,07,45,18.40
2008,08,15,07,46,18.40
2008,08,15,07,47,18.40
2008,08,15,07,48,18.40
2008,08,15,07,49,18.40
2008,08,15,07,50,18.50
2008,08,15,07,51,18.50
2008,08,15,07,52,18.50
2008,08,15,07,53,18.50
2008,08,15,07,54,18.60
2008,08,15,07,55,18.60
2008,08,15,07,56,18.60
2008,08,15,07,57,18.70
2008,08,15,07,58,18.70
2008,08,15,07,59,18.70
2008,08,15,08,00,18.70
2008,08,15,08,01,18.80
2008,08,15,08,02,18.80
2008,08,15,08,03,18.90
2008,08,15,08,04,18.90
2008,08,15,08,05,19.00
2008,08,15,08,06,19.10
2008,08,15,08,07,19.10
2008,08,15,08,08,19.20
2008,08,15,08,09,19.20
2008,08,15,08,10,19.30
2008,08,15,08,11,19.30
2008,08,15,08,12,19.30
2008,08,15,08,13,19.40
2008,08,15,08,14,19.40
2008,08,15,08,15,19.40
2008,08,15,08,16,19.50
2008,08,15,08,17,19.50
2008,08,15,08,18,19.60
2008,08,15,08,19,19.60
2008,08,15,08,20,19.70
2008,08,15,08,21,19.80
2008,08,15,08,22,19.80
2008,08,15,08,23,19.90
2008,08,15,08,24,19.90
2008,08,15,08,25,20.00
2008,08,15,08,26,20.10
2008,08,15,08,27,20.10
2008,08,15,08,28,20.20
2008,08,15,08,29,20.30
2008,08,15,08,30,20.30
2008,08,15,08,31,20.40
2008,08,15,08,32,20.40
2008,08,15,08,33,20.50
2008,08,15,08,34,20.60
2008,08,15,08,35,20.60
2008,08,15,08,36,20.70
2008,08,15,08,37,20.80
2008,08,15,08,38,20.90
2008,08,15,08,39,21.00
2008,08,15,08,40,21.10
2008,08,15,08,41,21.10
2008,08,15,08,42,21.20
2008,08,15,08,43,21.30
2008,08,15,08,44,21.40
2008,08,15,08,45,21.50
2008,08,15,08,46,21.70
2008,08,15,08,47,21.80
2008,08,15,08,48,21.80
2008,08,15,08,49,21.90
2008,08,15,08,50,22.00
2008,08,15,08,51,22.00
2008,08,15,08,52,22.10
2008,08,15,08,53,22.00
2008,08,15,08,54,21.90
2008,08,15,08,55,21.90
2008,08,15,08,56,21.90
2008,08,15,08,57,21.90
2008,08,15,08,58,21.90
2008,08,15,08,59,21.90
2008,08,15,09,00,22.00
2008,08,15,09,01,22.00
2008,08,15,09,02,22.10
2008,08,15,09,03,22.10
2008,08,15,09,04,22.10
2008,08,15,09,05,22.10
2008,08,15,09,06,22.20
2008,08,15,09,07,22.20
2008,08,15,09,08,22.20
2008,08,15,09,09,22.30
2008,08,15,09,10,22.30
2008,08,15,09,11,22.40
2008,08,15,09,12,22.50
2008,08,15,09,13,22.50
2008,08,15,09,14,22.60
2008,08,15,09,15,22.60
2008,08,15,09,16,22.60
2008,08,15,09,17,22.60
2008,08,15,09,18,22.60
2008,08,15,09,19,22.70
2008,08,15,09,20,22.70
2008,08,15,09,21,22.70
2008,08,15,09,22,22.70
2008,08,15,09,23,22.60
2008,08,15,09,24,22.60
2008,08,15,09,25,22.60
2008,08,15,09,26,22.60
2008,08,15,09,27,22.40
2008,08,15,09,28,22.40
2008,08,15,09,29,22.30
2008,08,15,09,30,22.30
2008,08,15,09,31,22.30
2008,08,15,09,32,22.30
2008,08,15,09,33,22.40
2008,08,15,09,34,22.40
2008,08,15,09,35,22.40
2008,08,15,09,36,22.50
2008,08,15,09,37,22.50
2008,08,15,09,38,22.60
2008,08,15,09,39,22.70
2008,08,15,09,40,22.70
2008,08,15,09,41,22.80
2008,08,15,09,42,22.90
2008,08,15,09,43,23.00
2008,08,15,09,44,23.10
2008,08,15,09,45,23.20
2008,08,15,09,46,23.30
2008,08,15,09,47,23.40
2008,08,15,09,48,23.50
2008,08,15,09,49,23.60
2008,08,15,09,50,23.70
2008,08,15,09,51,23.80
2008,08,15,09,52,23.90
2008,08,15,09,53,24.00
2008,08,15,09,54,24.10
2008,08,15,09,55,24.20
2008,08,15,09,56,24.40
2008,08,15,09,57,24.50
2008,08,15,09,58,24.60
2008,08,15,09,59,24.70
2008,08,15,10,00,24.80
2008,08,15,10,01,24.90
2008,08,15,10,02,25.00
2008,08,15,10,03,25.10
2008,08,15,10,04,25.20
2008,08,15,10,05,25.20
2008,08,15,10,06,25.30
2008,08,15,10,07,25.40
2008,08,15,10,08,25.50
2008,08,15,10,09,25.50
2008,08,15,10,10,25.60
2008,08,15,10,11,25.60
2008,08,15,10,12,25.70
2008,08,15,10,13,25.70
2008,08,15,10,14,25.80
2008,08,15,10,15,25.90
2008,08,15,10,16,25.90
2008,08,15,10,17,26.10
2008,08,15,10,18,26.20
2008,08,15,10,19,26.30
2008,08,15,10,20,26.30
2008,08,15,10,21,26.40
2008,08,15,10,22,26.50
2008,08,15,10,23,26.60
2008,08,15,10,24,26.60
2008,08,15,10,25,26.70
2008,08,15,10,26,26.80
2008,08,15,10,27,26.80
2008,08,15,10,28,26.90
2008,08,15,10,29,27.00
2008,08,15,10,30,27.10
2008,08,15,10,31,27.20
2008,08,15,10,32,27.20
2008,08,15,10,33,27.30
2008,08,15,10,34,27.40
2008,08,15,10,35,27.60
2008,08,15,10,36,27.70
2008,08,15,10,37,27.80
2008,08,15,10,38,28.00
2008,08,15,10,39,28.10
2008,08,15,10,40,28.20
2008,08,15,10,41,28.30
2008,08,15,10,42,28.30
2008,08,15,10,43,28.30
2008,08,15,10,44,28.40
2008,08,15,10,45,28.40
2008,08,15,10,46,28.30
2008,08,15,10,47,28.30
2008,08,15,10,48,28.40
2008,08,15,10,49,28.40
2008,08,15,10,50,28.40
2008,08,15,10,51,28.40
2008,08,15,10,52,28.50
2008,08,15,10,53,28.50
2008,08,15,10,54,28.60
2008,08,15,10,55,28.60
2008,08,15,10,56,28.70
2008,08,15,10,57,28.60
2008,08,15,10,58,28.50
2008,08,15,10,59,28.40
2008,08,15,11,00,28.30
2008,08,15,11,01,28.30
2008,08,15,11,02,28.10
2008,08,15,11,03,27.80
2008,08,15,11,04,27.70
2008,08,15,11,05,27.50
2008,08,15,11,06,27.30
2008,08,15,11,07,27.20
2008,08,15,11,08,27.10
2008,08,15,11,09,27.00
2008,08,15,11,10,26.90
2008,08,15,11,11,26.80
2008,08,15,11,12,26.70
2008,08,15,11,13,26.70
2008,08,15,11,14,26.70
2008,08,15,11,15,26.60
2008,08,15,11,16,26.60
2008,08,15,11,17,26.60
2008,08,15,11,18,26.60
2008,08,15,11,19,26.60
2008,08,15,11,20,26.70
2008,08,15,11,21,26.80
2008,08,15,11,22,26.90
2008,08,15,11,23,27.00
2008,08,15,11,24,27.10
2008,08,15,11,25,27.10
2008,08,15,11,26,27.20
2008,08,15,11,27,27.20
2008,08,15,11,28,27.30
2008,08,15,11,29,27.30
2008,08,15,11,30,27.40
2008,08,15,11,31,27.40
2008,08,15,11,32,27.40
2008,08,15,11,33,27.50
2008,08,15,11,34,27.60
2008,08,15,11,35,27.60
2008,08,15,11,36,27.70
2008,08,15,11,37,27.80
2008,08,15,11,38,27.80
2008,08,15,11,39,27.90
2008,08,15,11,40,28.00
2008,08,15,11,41,28.20
2008,08,15,11,42,28.30
2008,08,15,11,43,28.40
2008,08,15,11,44,28.50
2008,08,15,11,45,28.60
2008,08,15,11,46,28.80
2008,08,15,11,47,28.90
2008,08,15,11,48,29.00
2008,08,15,11,49,29.00
2008,08,15,11,50,28.80
2008,08,15,11,51,28.70
2008,08,15,11,52,28.50
2008,08,15,11,53,28.40
2008,08,15,11,54,28.20
2008,08,15,11,55,28.20
2008,08,15,11,56,28.10
2008,08,15,11,57,28.10
2008,08,15,11,58,28.10
2008,08,15,11,59,28.10
2008,08,15,12,00,28.10
2008,08,15,12,01,28.20
2008,08,15,12,02,28.30
2008,08,15,12,03,28.40
2008,08,15,12,04,28.50
2008,08,15,12,05,28.50
2008,08,15,12,06,28.40
2008,08,15,12,07,28.30
2008,08,15,12,08,28.30
2008,08,15,12,09,28.30
2008,08,15,12,10,28.30
2008,08,15,12,11,28.40
2008,08,15,12,12,28.40
2008,08,15,12,13,28.50
2008,08,15,12,14,28.60
2008,08,15,12,15,28.60
2008,08,15,12,16,28.60
2008,08,15,12,17,28.70
2008,08,15,12,18,28.80
2008,08,15,12,19,28.90
2008,08,15,12,20,29.00
2008,08,15,12,21,29.10
2008,08,15,12,22,29.10
2008,08,15,12,23,29.00
2008,08,15,12,24,29.00
2008,08,15,12,25,29.00
2008,08,15,12,26,28.90
2008,08,15,12,27,28.80
2008,08,15,12,28,28.80
2008,08,15,12,29,28.70
2008,08,15,12,30,28.70
2008,08,15,12,31,28.60
2008,08,15,12,32,28.60
2008,08,15,12,33,28.50
2008,08,15,12,34,28.40
2008,08,15,12,35,28.30
2008,08,15,12,36,28.20
2008,08,15,12,37,28.20
2008,08,15,12,38,28.10
2008,08,15,12,39,28.10
2008,08,15,12,40,28.10
2008,08,15,12,41,28.10
2008,08,15,12,42,28.10
2008,08,15,12,43,28.00
2008,08,15,12,44,28.00
2008,08,15,12,45,27.90
2008,08,15,12,46,27.80
2008,08,15,12,47,27.70
2008,08,15,12,48,27.60
2008,08,15,12,49,27.50
2008,08,15,12,50,27.50
2008,08,15,12,51,27.50
2008,08,15,12,52,27.40
2008,08,15,12,53,27.40
2008,08,15,12,54,27.40
2008,08,15,12,55,27.50
2008,08,15,12,56,27.40
2008,08,15,12,57,27.40
2008,08,15,12,58,27.40
2008,08,15,12,59,27.40
2008,08,15,13,00,27.40
2008,08,15,13,01,27.30
2008,08,15,13,02,27.20
2008,08,15,13,03,27.10
2008,08,15,13,04,26.90
2008,08,15,13,05,26.80
2008,08,15,13,06,26.80
2008,08,15,13,07,26.80
2008,08,15,13,08,26.80
2008,08,15,13,09,26.80
2008,08,15,13,10,26.80
2008,08,15,13,11,26.80
2008,08,15,13,12,26.80
2008,08,15,13,13,26.70
2008,08,15,13,14,26.70
2008,08,15,13,15,26.70
2008,08,15,13,16,26.70
2008,08,15,13,17,26.70
2008,08,15,13,18,26.70
2008,08,15,13,19,26.70
2008,08,15,13,20,26.70
2008,08,15,13,21,26.70
2008,08,15,13,22,26.70
2008,08,15,13,23,26.60
2008,08,15,13,24,26.60
2008,08,15,13,25,26.60
2008,08,15,13,26,26.60
2008,08,15,13,27,26.60
2008,08,15,13,28,26.60
2008,08,15,13,29,26.60
2008,08,15,13,30,26.60
2008,08,15,13,31,26.60
2008,08,15,13,32,26.60
2008,08,15,13,33,26.70
2008,08,15,13,34,26.70
2008,08,15,13,35,26.70
2008,08,15,13,36,26.80
2008,08,15,13,37,26.80
2008,08,15,13,38,26.80
2008,08,15,13,39,26.80
2008,08,15,13,40,26.80
2008,08,15,13,41,26.80
2008,08,15,13,42,26.80
2008,08,15,13,43,26.70
2008,08,15,13,44,26.70
2008,08,15,13,45,26.70
2008,08,15,13,46,26.70
2008,08,15,13,47,26.70
2008,08,15,13,48,26.70
2008,08,15,13,49,26.70
2008,08,15,13,50,26.60
2008,08,15,13,51,26.60
2008,08,15,13,52,26.60
2008,08,15,13,53,26.60
2008,08,15,13,54,26.60
2008,08,15,13,55,26.60
2008,08,15,13,56,26.60
2008,08,15,13,57,26.70
2008,08,15,13,58,26.70
2008,08,15,13,59,26.70
2008,08,15,14,00,26.70
2008,08,15,14,01,26.70
2008,08,15,14,02,26.70
2008,08,15,14,03,26.70
2008,08,15,14,04,26.70
2008,08,15,14,05,26.60
2008,08,15,14,06,26.60
2008,08,15,14,07,26.60
2008,08,15,14,08,26.60
2008,08,15,14,09,26.60
2008,08,15,14,10,26.70
2008,08,15,14,11,26.70
2008,08,15,14,12,26.70
2008,08,15,14,13,26.70
2008,08,15,14,14,26.70
2008,08,15,14,15,26.70
2008,08,15,14,16,26.70
2008,08,15,14,17,26.70
2008,08,15,14,18,26.80
2008,08,15,14,19,26.70
2008,08,15,14,20,26.70
2008,08,15,14,21,26.60
2008,08,15,14,22,26.60
2008,08,15,14,23,26.50
2008,08,15,14,24,26.50
2008,08,15,14,25,26.40
2008,08,15,14,26,26.40
2008,08,15,14,27,26.40
2008,08,15,14,28,26.40
2008,08,15,14,29,26.40
2008,08,15,14,30,26.30
2008,08,15,14,31,26.30
2008,08,15,14,32,26.30
2008,08,15,14,33,26.20
2008,08,15,14,34,26.20
2008,08,15,14,35,26.20
2008,08,15,14,36,26.20
2008,08,15,14,37,26.10
2008,08,15,14,38,26.10
2008,08,15,14,39,26.10
2008,08,15,14,40,26.20
2008,08,15,14,41,26.20
2008,08,15,14,42,26.30
2008,08,15,14,43,26.50
2008,08,15,14,44,26.60
2008,08,15,14,45,26.80
2008,08,15,14,46,26.90
2008,08,15,14,47,27.00
2008,08,15,14,48,27.10
2008,08,15,14,49,27.20
2008,08,15,14,50,27.40
2008,08,15,14,51,27.50
2008,08,15,14,52,27.60
2008,08,15,14,53,27.60
2008,08,15,14,54,27.70
2008,08,15,14,55,27.70
2008,08,15,14,56,27.70
2008,08,15,14,57,27.80
2008,08,15,14,58,27.80
2008,08,15,14,59,27.80
2008,08,15,15,00,27.80
2008,08,15,15,01,27.80
2008,08,15,15,02,27.70
2008,08,15,15,03,27.70
2008,08,15,15,04,27.70
2008,08,15,15,05,27.70
2008,08,15,15,06,27.70
2008,08,15,15,07,27.60
2008,08,15,15,08,27.60
2008,08,15,15,09,27.60
2008,08,15,15,10,27.60
2008,08,15,15,11,27.50
2008,08,15,15,12,27.40
2008,08,15,15,13,27.40
2008,08,15,15,14,27.40
2008,08,15,15,15,27.40
2008,08,15,15,16,27.30
2008,08,15,15,17,27.30
2008,08,15,15,18,27.30
2008,08,15,15,19,27.30
2008,08,15,15,20,27.40
2008,08,15,15,21,27.40
2008,08,15,15,22,27.40
2008,08,15,15,23,27.40
2008,08,15,15,24,27.40
2008,08,15,15,25,27.40
2008,08,15,15,26,27.40
2008,08,15,15,27,27.40
2008,08,15,15,28,27.40
2008,08,15,15,29,27.40
2008,08,15,15,30,27.40
2008,08,15,15,31,27.40
2008,08,15,15,32,27.40
2008,08,15,15,33,27.40
2008,08,15,15,34,27.50
2008,08,15,15,35,27.50
2008,08,15,15,36,27.50
2008,08,15,15,37,27.60
2008,08,15,15,38,27.60
2008,08,15,15,39,27.70
2008,08,15,15,40,27.80
2008,08,15,15,41,27.80
2008,08,15,15,42,27.90
2008,08,15,15,43,28.00
2008,08,15,15,44,28.00
2008,08,15,15,45,28.10
2008,08,15,15,46,28.30
2008,08,15,15,47,28.40
2008,08,15,15,48,28.50
2008,08,15,15,49,28.70
2008,08,15,15,50,28.70
2008,08,15,15,51,28.80
2008,08,15,15,52,28.80
2008,08,15,15,53,28.80
2008,08,15,15,54,28.90
2008,08,15,15,55,28.90
2008,08,15,15,56,29.00
2008,08,15,15,57,29.10
2008,08,15,15,58,29.20
2008,08,15,15,59,29.30
2008,08,15,16,00,29.50
2008,08,15,16,01,29.60
2008,08,15,16,02,29.70
2008,08,15,16,03,29.80
2008,08,15,16,04,29.80
2008,08,15,16,05,29.90
2008,08,15,16,06,29.90
2008,08,15,16,07,29.90
2008,08,15,16,08,30.00
2008,08,15,16,09,30.10
2008,08,15,16,10,30.20
2008,08,15,16,11,30.30
2008,08,15,16,12,30.40
2008,08,15,16,13,30.50
2008,08,15,16,14,30.50
2008,08,15,16,15,30.40
2008,08,15,16,16,30.40
2008,08,15,16,17,30.30
2008,08,15,16,18,30.20
2008,08,15,16,19,30.20
2008,08,15,16,20,30.10
2008,08,15,16,21,30.00
2008,08,15,16,22,29.90
2008,08,15,16,23,29.90
2008,08,15,16,24,29.90
2008,08,15,16,25,29.80
2008,08,15,16,26,29.70
2008,08,15,16,27,29.50
2008,08,15,16,28,29.40
2008,08,15,16,29,29.30
2008,08,15,16,30,29.10
2008,08,15,16,31,29.00
2008,08,15,16,32,28.90
2008,08,15,16,33,28.80
2008,08,15,16,34,28.70
2008,08,15,16,35,28.50
2008,08,15,16,36,28.30
2008,08,15,16,37,28.20
2008,08,15,16,38,28.10
2008,08,15,16,39,28.00
2008,08,15,16,40,27.90
2008,08,15,16,41,27.80
2008,08,15,16,42,27.70
2008,08,15,16,43,27.70
2008,08,15,16,44,27.80
2008,08,15,16,45,27.80
2008,08,15,16,46,27.90
2008,08,15,16,47,28.00
2008,08,15,16,48,28.10
2008,08,15,16,49,28.20
2008,08,15,16,50,28.10
2008,08,15,16,51,28.00
2008,08,15,16,52,27.90
2008,08,15,16,53,27.70
2008,08,15,16,54,27.60
2008,08,15,16,55,27.50
2008,08,15,16,56,27.50
2008,08,15,16,57,27.40
2008,08,15,16,58,27.40
2008,08,15,16,59,27.30
2008,08,15,17,00,27.30
2008,08,15,17,01,27.30
2008,08,15,17,02,27.30
2008,08,15,17,03,27.30
2008,08,15,17,04,27.30
2008,08,15,17,05,27.30
2008,08,15,17,06,27.30
2008,08,15,17,07,27.40
2008,08,15,17,08,27.40
2008,08,15,17,09,27.40
2008,08,15,17,10,27.40
2008,08,15,17,11,27.40
2008,08,15,17,12,27.40
2008,08,15,17,13,27.40
2008,08,15,17,14,27.50
2008,08,15,17,15,27.50
2008,08,15,17,16,27.60
2008,08,15,17,17,27.60
2008,08,15,17,18,27.60
2008,08,15,17,19,27.70
2008,08,15,17,20,27.70
2008,08,15,17,21,27.70
2008,08,15,17,22,27.80
2008,08,15,17,23,27.80
2008,08,15,17,24,27.90
2008,08,15,17,25,27.90
2008,08,15,17,26,28.00
2008,08,15,17,27,28.00
2008,08,15,17,28,28.10
2008,08,15,17,29,28.20
2008,08,15,17,30,28.20
2008,08,15,17,31,28.30
2008,08,15,17,32,28.40
2008,08,15,17,33,28.40
2008,08,15,17,34,28.30
2008,08,15,17,35,28.30
2008,08,15,17,36,28.30
2008,08,15,17,37,28.30
2008,08,15,17,38,28.20
2008,08,15,17,39,28.20
2008,08,15,17,40,28.20
2008,08,15,17,41,28.20
2008,08,15,17,42,28.20
2008,08,15,17,43,28.20
2008,08,15,17,44,28.10
2008,08,15,17,45,28.10
2008,08,15,17,46,28.10
2008,08,15,17,47,28.10
2008,08,15,17,48,28.10
2008,08,15,17,49,28.10
2008,08,15,17,50,28.00